Location: Mactaquac Provincial Park
(45.9573°N, 66.8897°W)
Time: 12:39:39
(UTC-03:00)

CENTAUR R/B - Visible Passes

Search period start: 26 May 2018 00:00
Search period end: 05 June 2018 00:00
Orbit: 805 x 1383 km, 63.5° (Epoch: 23 May)

Date Brightness Start Highest point End Pass type
(mag) Time Alt. Az. Time Alt. Az. Time Alt. Az.
26 May 5.0 01:15:28 10° WNW 01:20:45 24° NNW 01:26:37 10° NNE visible
26 May 5.4 03:08:56 10° NW 03:14:14 21° N 03:20:00 10° NE visible
26 May 4.7 05:00:09 10° NNW 05:07:14 39° NE 05:14:58 10° ESE visible
26 May 2.6 22:34:04 10° SW 22:40:06 89° NW 22:47:10 10° NE visible
27 May 4.6 00:26:13 10° W 00:31:48 29° NNW 00:38:06 10° NNE visible
27 May 5.4 02:20:02 10° NW 02:25:04 20° N 02:30:33 10° NE visible
27 May 5.1 04:11:53 10° NNW 04:18:24 30° NNE 04:25:31 10° E visible
27 May 2.6 21:46:09 10° SSW 21:51:59 58° ESE 21:58:43 10° NE visible
27 May 4.1 23:37:08 10° WSW 23:43:00 39° NW 23:49:43 10° NNE visible
28 May 5.3 01:30:54 10° NW 01:35:55 21° N 01:41:24 10° NE visible
28 May 5.3 03:23:30 10° NNW 03:29:25 25° NNE 03:35:52 10° ENE visible
28 May 3.4 22:48:22 10° WSW 22:54:24 55° NW 23:01:25 10° NE visible
29 May 5.1 00:41:36 10° WNW 00:46:49 23° NNW 00:52:36 10° NE visible
29 May 5.4 02:34:56 10° NW 02:40:20 21° NNE 02:46:12 10° ENE visible
29 May 4.6 04:26:02 10° NNW 04:33:15 41° NE 04:41:06 10° ESE visible
29 May 2.7 21:59:56 10° SW 22:06:00 81° NW 22:13:05 10° NE visible
29 May 4.8 23:52:20 10° W 23:57:50 28° NNW 00:04:02 10° NNE visible
30 May 5.5 01:46:07 10° NW 01:51:11 20° N 01:56:42 10° NE visible
30 May 5.0 03:37:47 10° NNW 03:44:27 32° NNE 03:51:43 10° E visible
30 May 4.3 23:03:12 10° W 23:09:01 36° NNW 23:15:38 10° NNE visible
31 May 5.4 00:57:01 10° NW 01:02:00 20° N 01:07:28 10° NE visible
31 May 5.2 02:49:26 10° NNW 02:55:30 26° NNE 03:02:06 10° ENE visible
31 May 3.9 04:40:08 10° NW 04:47:51 60° NE 04:56:14 10° SE visible
31 May 3.7 22:14:21 10° WSW 22:20:21 50° NW 22:27:19 10° NE visible
01 Jun 5.2 00:07:45 10° WNW 00:12:54 22° NNW 00:18:35 10° NE visible
01 Jun 5.4 02:00:55 10° NW 02:06:26 22° NNE 02:12:25 10° ENE visible
01 Jun 4.4 03:51:55 10° NNW 03:59:14 44° NE 04:07:13 10° ESE visible
01 Jun 5.0 23:18:27 10° W 23:23:53 26° NNW 23:29:58 10° NNE visible
02 Jun 5.5 01:12:09 10° NW 01:17:17 20° N 01:22:52 10° NE visible
02 Jun 4.8 03:03:40 10° NNW 03:10:29 34° NNE 03:17:53 10° E visible
02 Jun 3.3 04:54:15 10° NW 05:02:12 89° NE 05:10:47 10° SE visible
02 Jun 4.6 22:29:16 10° W 22:35:01 34° NNW 22:41:33 10° NNE visible
03 Jun 5.4 00:23:08 10° NW 00:28:07 20° N 00:33:34 10° NE visible
03 Jun 5.1 02:15:21 10° NNW 02:21:34 27° NNE 02:28:19 10° E visible
03 Jun 3.7 04:06:01 10° NW 04:13:48 65° NE 04:22:15 10° SE visible
03 Jun 4.0 21:40:21 10° WSW 21:46:19 46° NW 21:53:13 10° NNE visible
03 Jun 5.3 23:33:53 10° WNW 23:38:59 22° NNW 23:44:36 10° NE visible
04 Jun 5.3 01:26:53 10° NW 01:32:32 23° NNE 01:38:38 10° ENE visible
04 Jun 4.2 03:17:48 10° NNW 03:25:13 47° NE 03:33:19 10° ESE visible
04 Jun 5.1 22:44:35 10° WNW 22:49:56 25° NNW 22:55:56 10° NNE visible
